Date String (YYYY-MM-DD hh:mm:ss) UTC,Instrument flags,Ambient pressure (hPa),Sample flow (lpm),Bypass flow (lpm),Sample temperature (°C),Ambient temperature (°C),ASC tube jacket temperature (°C),LED temperature (°C),Box temperature (°C),Sample RH (%),Span deviation,Mass concentration (μg/m³),Mass concentration (μg/m³),Mass concentration (μg/m³)
DateTimeUTC,F1_M11,P_M11,Q1_M11,Q2_M11,T1_M11,T2_M11,T3_M11,T4_M11,T5_M11,U1_M11,ZSPAN_M11,X0_M11,X2_M11,X1_M11
2022-09-25 12:00:00,,0835.6,5.01,0.00,29.6,27.9,00.0,38.5,31.4,14.8,0000.6,0011.45,0006.43,0005.85
2022-09-25 12:01:00,,0835.6,4.99,0.00,29.6,27.9,00.0,38.5,31.4,14.8,0000.7,0011.44,0006.44,0005.86
2022-09-25 12:02:00,,0835.6,5.02,0.00,29.6,27.9,00.0,38.4,31.4,14.8,0000.6,0011.25,0006.45,0005.87
2022-09-25 12:03:00,,0835.6,4.98,0.00,29.6,27.9,00.0,38.4,31.4,14.8,0000.4,0010.89,0006.46,0005.89
2022-09-25 12:04:00,,0835.5,5.01,0.00,29.6,27.9,00.0,38.4,31.4,14.8,0000.3,0010.68,0006.47,0005.90
2022-09-25 12:05:00,,0835.6,4.99,0.00,29.6,27.9,00.0,38.4,31.4,14.8,0000.3,0010.69,0006.47,0005.91
2022-09-25 12:06:00,,0835.6,4.99,0.00,29.6,27.9,00.0,38.4,31.4,14.8,0000.4,0010.66,0006.47,0005.93
2022-09-25 12:07:00,,0835.6,5.01,0.00,29.6,27.8,00.0,38.4,31.4,14.8,0001.1,0010.57,0006.48,0005.94
2022-09-25 12:08:00,,0835.5,4.99,0.00,29.6,27.8,00.0,38.4,31.4,14.8,0002.0,0010.81,0006.44,0005.93
2022-09-25 12:09:00,,0835.6,5.02,0.00,29.6,27.9,00.0,38.4,31.4,14.8,0001.6,0011.00,0006.43,0005.93
2022-09-25 12:10:00,,0835.6,4.99,0.00,29.6,27.8,00.0,38.4,31.4,14.8,0000.5,0010.64,0006.41,0005.93
2022-09-25 12:11:00,,0835.6,5.02,0.00,29.6,27.8,00.0,38.4,31.4,14.8,0000.0,0010.91,0006.38,0005.93
2022-09-25 12:12:00,,0835.6,4.99,0.00,29.6,27.8,00.0,38.4,31.4,14.8,0000.0,0010.85,0006.37,0005.94
2022-09-25 12:13:00,,0835.6,5.01,0.00,29.5,27.8,00.0,38.4,31.4,14.8,0000.0,0011.59,0006.38,0005.95
2022-09-25 12:14:00,,0835.6,5.00,0.00,29.5,27.8,00.0,38.4,31.4,14.8,0000.0,0011.85,0006.39,0005.93
2022-09-25 12:15:00,,0835.6,4.99,0.00,29.5,27.8,00.0,38.4,31.3,14.7,0000.0,0011.84,0006.37,0005.93
2022-09-25 12:16:00,,0835.6,5.01,0.00,29.5,27.8,00.0,38.4,31.3,14.7,0000.0,0011.92,0006.40,0005.92
2022-09-25 12:17:00,,0835.6,4.99,0.00,29.5,27.8,00.0,38.4,31.4,14.7,0000.0,0011.97,0006.41,0005.92
2022-09-25 12:18:00,,0835.6,5.01,0.00,29.5,27.8,00.0,38.3,31.3,14.7,0000.0,0012.06,0006.38,0005.91
2022-09-25 12:19:00,,0835.6,5.00,0.00,29.5,27.7,00.0,38.3,31.3,14.8,0000.0,0012.04,0006.38,0005.91
2022-09-25 12:20:00,,0835.6,5.00,0.00,29.5,27.7,00.0,38.3,31.3,14.8,0000.0,0011.66,0006.35,0005.91
2022-09-25 12:21:00,,0835.7,5.00,0.00,29.5,27.7,00.0,38.3,31.3,14.8,0000.0,0011.33,0006.33,0005.91
2022-09-25 12:22:00,,0835.7,5.00,0.00,29.5,27.7,00.0,38.3,31.3,14.7,0000.0,0010.95,0006.32,0005.91
2022-09-25 12:23:00,,0835.6,4.99,0.00,29.5,27.7,00.0,38.3,31.3,14.8,0000.0,0011.09,0006.34,0005.92
2022-09-25 12:24:00,,0835.7,5.01,0.00,29.5,27.7,00.0,38.3,31.3,14.8,0000.0,0010.52,0006.34,0005.91
2022-09-25 12:25:00,,0835.6,4.99,0.00,29.5,27.7,00.0,38.3,31.3,14.8,0000.0,0010.24,0006.35,0005.93
2022-09-25 12:26:00,,0835.6,5.00,0.00,29.4,27.7,00.0,38.3,31.3,14.8,0000.0,0010.75,0006.38,0005.93
2022-09-25 12:27:00,,0835.6,5.00,0.00,29.4,27.7,00.0,38.3,31.3,14.8,0000.0,0010.99,0006.41,0005.92
2022-09-25 12:28:00,,0835.7,5.01,0.00,29.4,27.7,00.0,38.3,31.3,14.8,0000.3,0011.02,0006.43,0005.92
2022-09-25 12:29:00,,0835.7,4.99,0.00,29.4,27.7,00.0,38.3,31.3,14.8,0000.2,0011.07,0006.44,0005.92
2022-09-25 12:30:00,,0835.6,5.01,0.00,29.4,27.7,00.0,38.3,31.3,14.9,0000.0,0010.28,0006.44,0005.91
2022-09-25 12:31:00,,0835.7,4.99,0.00,29.4,27.7,00.0,38.3,31.2,14.9,0000.0,0010.25,0006.43,0005.90
2022-09-25 12:32:00,,0835.7,5.02,0.00,29.4,27.7,00.0,38.3,31.3,14.9,0000.0,0010.40,0006.46,0005.89
2022-09-25 12:33:00,,0835.6,4.99,0.00,29.4,27.7,00.0,38.2,31.2,14.9,0000.0,0010.53,0006.49,0005.89
2022-09-25 12:34:00,,0835.7,4.99,0.00,29.4,27.7,00.0,38.2,31.2,14.9,0000.0,0010.38,0006.44,0005.87
2022-09-25 12:35:00,,0835.7,5.01,0.00,29.4,27.7,00.0,38.2,31.2,14.9,0000.0,0010.35,0006.42,0005.86
2022-09-25 12:36:00,,0835.7,5.00,0.00,29.4,27.7,00.0,38.2,31.2,15.0,0000.0,0010.40,0006.42,0005.85
2022-09-25 12:37:00,,0835.7,4.99,0.00,29.4,27.7,00.0,38.2,31.2,15.0,0000.0,0009.98,0006.43,0005.85
2022-09-25 12:38:00,,0835.7,5.01,0.00,29.4,27.7,00.0,38.2,31.2,15.0,0000.0,0009.73,0006.41,0005.87
2022-09-25 12:39:00,,0835.8,4.99,0.00,29.4,27.7,00.0,38.2,31.2,15.0,0000.0,0009.74,0006.39,0005.87
2022-09-25 12:40:00,,0835.7,5.02,0.00,29.4,27.7,00.0,38.2,31.2,15.0,0000.0,0010.05,0006.41,0005.86
2022-09-25 12:41:00,,0835.8,4.99,0.00,29.4,27.7,00.0,38.2,31.2,15.0,0000.0,0010.13,0006.43,0005.87
2022-09-25 12:42:00,,0835.7,4.99,0.00,29.4,27.6,00.0,38.2,31.2,15.0,0000.0,0010.30,0006.46,0005.88
2022-09-25 12:43:00,,0835.7,5.01,0.00,29.4,27.6,00.0,38.2,31.2,15.0,0000.0,0010.21,0006.42,0005.87
2022-09-25 12:44:00,,0835.7,4.99,0.00,29.4,27.6,00.0,38.2,31.2,15.0,0000.0,0010.13,0006.39,0005.88
2022-09-25 12:45:00,,0835.7,4.99,0.00,29.4,27.7,00.0,38.2,31.2,15.0,0000.0,0010.43,0006.41,0005.88
2022-09-25 12:46:00,,0835.8,5.01,0.00,29.4,27.7,00.0,38.2,31.2,15.0,0000.0,0011.10,0006.44,0005.89
2022-09-25 12:47:00,,0835.8,4.99,0.00,29.3,27.6,00.0,38.2,31.2,15.0,0000.0,0011.15,0006.46,0005.88
2022-09-25 12:48:00,,0835.7,5.00,0.00,29.3,27.6,00.0,38.2,31.2,15.0,0000.0,0011.63,0006.45,0005.90
2022-09-25 12:49:00,,0835.8,5.00,0.00,29.3,27.6,00.0,38.2,31.2,15.0,0000.0,0012.09,0006.43,0005.89
2022-09-25 12:50:00,,0835.7,5.00,0.00,29.3,27.6,00.0,38.2,31.1,15.0,0000.0,0012.05,0006.40,0005.88
2022-09-25 12:51:00,,0835.7,5.00,0.00,29.3,27.6,00.0,38.2,31.1,15.0,0000.0,0011.76,0006.38,0005.89
2022-09-25 12:52:00,,0835.8,5.00,0.00,29.3,27.6,00.0,38.1,31.2,15.0,0000.8,0012.19,0006.36,0005.88
2022-09-25 12:53:00,,0835.7,4.99,0.00,29.3,27.6,00.0,38.1,31.2,15.0,0001.2,0012.15,0006.32,0005.87
2022-09-25 12:54:00,,0835.8,5.00,0.00,29.3,27.6,00.0,38.1,31.1,15.1,0001.3,0012.26,0006.32,0005.88
2022-09-25 12:55:00,,0835.7,5.00,0.00,29.3,27.5,00.0,38.1,31.1,15.1,0001.6,0012.39,0006.36,0005.87
2022-09-25 12:56:00,,0835.7,5.00,0.00,29.3,27.5,00.0,38.1,31.1,15.1,0001.6,0012.63,0006.40,0005.88
2022-09-25 12:57:00,,0835.8,5.00,0.00,29.3,27.5,00.0,38.1,31.1,15.1,0001.8,0011.97,0006.38,0005.89
2022-09-25 12:58:00,,0835.7,5.00,0.00,29.3,27.6,00.0,38.1,31.1,15.1,0000.2,0011.73,0006.32,0005.88
2022-09-25 12:59:00,,0835.7,5.00,0.00,29.3,27.5,00.0,38.1,31.1,15.2,0001.4,0011.36,0006.35,0005.87
